Location: Avoca
(45.7167°N, 74.7000°W)
Time: 11:22:27
(UTC+00:00)

Tiangong - Pass Details

Date: 08 December 2022
Orbit: 383 x 386 km, 41.5° (Epoch: 30 January)

Event Time Altitude Azimuth Distance (km) Brightness Sun altitude
Rises 21:55:36 0° 262° (W) 2,253 3.4 -7.1°
Reaches altitude 10° 21:57:45 10° 254° (WSW) 1,401 2.4 -7.4°
Maximum altitude 22:00:41 36° 186° (S) 629 -0.7 -7.9°
Drops below altitude 10° 22:03:37 10° 117° (ESE) 1,403 0.3 -8.4°
Enters shadow 22:04:46 - 112° (ESE) 1,850 0.9 -8.5°
